Location: Limerick
(52.6800°N, 8.6400°W)
Time: 02:30:39
(UTC+00:00)

Amateur Radio Satellites - All Passes

Search period start: 05 March 2015 02:00
Search period end: 06 March 2015 02:00
Location: Limerick, 52.6800°N, 8.6400°W

Satellite Date Start Highest point End Downlink Frequencies (MHz)
Time Altitude Azimuth
BEESAT 05 Mar 02:08:11 02:12:23 30° 266° (W) 02:16:35 436.000
Gurwin Techsat 1B 05 Mar 02:09:02 02:12:57 21° 88° (E) 02:16:59 435.225
Oscar 19 05 Mar 02:19:50 02:24:59 75° 104° (ESE) 02:30:08 437.125/150
ITAMSAT 1 05 Mar 02:23:20 02:28:01 32° 94° (E) 02:32:42 435.822/435.867
BEESAT 2 05 Mar 02:26:11 02:29:42 26° 241° (WSW) 02:33:08 435.950
AIST 2 05 Mar 02:35:45 02:39:53 47° 235° (SW) 02:43:57 435.215
YUBILEINY 05 Mar 02:36:39 02:45:16 53° 68° (ENE) 02:53:53 435.215
ITUPSAT 1 05 Mar 02:38:16 02:41:36 18° 272° (W) 02:44:49 437.325
PCSat 05 Mar 02:50:00 02:54:18 23° 21° (NNE) 02:58:39 145.827
JAS-2 05 Mar 02:53:50 02:55:22 11° 74° (ENE) 02:57:26 435.910
MOZHAYETS 4 05 Mar 03:11:02 03:14:41 25° 61° (ENE) 03:18:26
KKS-1 05 Mar 03:20:03 03:23:50 26° 267° (W) 03:27:33 437.445
STARS 05 Mar 03:20:37 03:24:41 35° 264° (W) 03:28:45 437.465
AUBIESAT-1 05 Mar 03:22:56 03:26:15 49° 63° (ENE) 03:29:46 437.475
M-CUBED/EXP-1 PRIME 05 Mar 03:22:58 03:26:17 55° 64° (ENE) 03:29:49 437.505
HORYU 2 05 Mar 03:32:08 03:35:59 28° 94° (E) 03:39:52 437.375
SO-50 05 Mar 03:38:20 03:42:52 43° 326° (NNW) 03:47:31 436.795
Gurwin Techsat 1B 05 Mar 03:48:14 03:53:35 74° 289° (WNW) 03:58:53 435.225
RS-15 05 Mar 03:57:36 04:08:05 45° 357° (N) 04:18:59 29.354- 29.394
Oscar 19 05 Mar 03:59:57 04:03:54 22° 303° (WNW) 04:07:45 437.125/150
ITAMSAT 1 05 Mar 04:02:42 04:07:43 47° 294° (WNW) 04:12:42 435.822/435.867
AO-7 05 Mar 04:25:29 04:33:24 47° 99° (E) 04:41:20 29.400- 29.500
PCSat 05 Mar 04:33:24 04:38:49 60° 45° (NE) 04:44:12 145.827
YUBILEINY 05 Mar 04:33:47 04:42:09 48° 272° (W) 04:50:24 435.215
JAS-2 05 Mar 04:35:17 04:42:22 47° 96° (E) 04:49:54 435.910
STRAND 1 05 Mar 04:42:27 04:45:40 17° 52° (NE) 04:49:02 437.568
MOZHAYETS 4 05 Mar 04:47:11 04:51:40 54° 260° (W) 04:56:12
AUBIESAT-1 05 Mar 04:59:19 05:01:33 16° 265° (W) 05:03:46 437.475
M-CUBED/EXP-1 PRIME 05 Mar 04:59:43 05:01:43 14° 266° (W) 05:03:40 437.505
PRISM 05 Mar 05:00:44 05:04:11 26° 62° (ENE) 05:07:41 437.425
HORYU 2 05 Mar 05:08:36 05:12:49 42° 293° (WNW) 05:17:01 437.375
CUBESAT XI-V 05 Mar 05:15:59 05:20:13 35° 65° (ENE) 05:24:32 437.345
SO-50 05 Mar 05:20:49 05:24:34 22° 350° (N) 05:28:21 436.795
Gurwin Techsat 1B 05 Mar 05:29:26 05:32:48 17° 309° (NW) 05:36:00 435.225
ITAMSAT 1 05 Mar 05:44:29 05:46:08 11° 315° (NW) 05:47:36 435.822/435.867
Cubesat XI-IV 05 Mar 06:08:39 06:13:09 27° 91° (E) 06:17:41 437.490
RS-15 05 Mar 06:11:54 06:22:57 59° 29° (NNE) 06:34:32 29.354- 29.394
CUTE-I 05 Mar 06:16:47 06:21:29 30° 93° (E) 06:26:14 437.470
PCSat 05 Mar 06:17:13 06:22:00 32° 246° (WSW) 06:26:44 145.827
AO-7 05 Mar 06:18:25 06:26:29 56° 301° (WNW) 06:34:27 29.400- 29.500
STRAND 1 05 Mar 06:19:01 06:24:11 80° 72° (ENE) 06:29:23 437.568
JAS-2 05 Mar 06:20:29 06:27:31 52° 295° (WNW) 06:34:58 435.910
YUBILEINY 05 Mar 06:34:09 06:36:48 11° 295° (WNW) 06:38:53 435.215
PRISM 05 Mar 06:35:30 06:39:30 44° 261° (W) 06:43:34 437.425
AIST 1 05 Mar 06:36:59 06:40:31 25° 88° (E) 06:44:11
GONETS M04 05 Mar 06:49:29 06:55:45 22° 47° (NE) 07:02:17
CUBESAT XI-V 05 Mar 06:53:15 06:57:40 38° 265° (W) 07:02:05 437.345
SO-50 05 Mar 07:02:43 07:06:36 23° 14° (NNE) 07:10:34 436.795
Cubesat XI-IV 05 Mar 07:48:21 07:53:39 59° 292° (WNW) 07:58:55 437.490
CUTE-I 05 Mar 07:56:38 08:01:51 52° 294° (WNW) 08:07:02 437.470
STRAND 1 05 Mar 08:00:26 08:04:05 19° 273° (W) 08:07:37 437.568
JAS-2 05 Mar 08:06:50 08:11:15 17° 316° (NW) 08:15:36 435.910
CUTE 1.7 + AOD 2 05 Mar 08:09:40 08:11:08 12° 84° (E) 08:12:48 437.475
AO-7 05 Mar 08:11:56 08:17:44 21° 325° (NW) 08:23:20 29.400- 29.500
AIST 1 05 Mar 08:13:48 08:18:01 43° 288° (WNW) 08:22:16
TIGRISAT 05 Mar 08:23:03 08:24:19 11° 53° (NE) 08:25:44 435.000
RS-15 05 Mar 08:24:42 08:35:54 68° 236° (WSW) 08:47:34 29.354- 29.394
O/OREOS (USA 219) 05 Mar 08:30:18 08:33:12 17° 102° (ESE) 08:36:15 437.305
ANTELSAT 05 Mar 08:36:49 08:39:11 15° 56° (NE) 08:41:40 437.575/2403.000
AAUSAT CUBESAT 2 05 Mar 08:43:09 08:45:39 16° 87° (E) 08:48:18 437.432
SO-50 05 Mar 08:43:21 08:48:11 51° 37° (NE) 08:53:02 436.795
GONETS M04 05 Mar 08:45:53 08:54:38 69° 74° (ENE) 09:03:25
HO-68 05 Mar 08:46:57 08:53:26 36° 94° (E) 08:59:58 435.675
COMPASS 1 05 Mar 08:47:25 08:50:26 19° 89° (E) 08:53:33 437.405
NANOSAT C BR1 05 Mar 08:50:07 08:51:45 12° 54° (NE) 08:53:31 145.865
Oscar 11 05 Mar 08:55:25 08:56:34 11° 83° (E) 08:57:55 145.826/435.025
GOMX 1 05 Mar 09:02:28 09:06:36 37° 95° (E) 09:10:33 467.674
BRITE-PL 05 Mar 09:10:38 09:15:16 64° 101° (E) 09:19:33 437.365/2234.400
CINEMA 3 05 Mar 09:14:29 09:17:36 20° 90° (E) 09:20:45 145.822/145.860
SEEDS 05 Mar 09:18:02 09:22:04 42° 98° (E) 09:26:08 437.485
CUBEBUG 2 05 Mar 09:18:38 09:20:38 13° 86° (E) 09:22:48 437.445
BUGSAT 1 05 Mar 09:19:11 09:21:52 17° 57° (ENE) 09:24:39 437.445
QB50P1 05 Mar 09:21:45 09:24:58 21° 60° (ENE) 09:28:16 145.935-145.965
ISS 05 Mar 09:23:29 09:26:14 26° 151° (SSE) 09:28:59 145.825
DX 1 05 Mar 09:24:53 09:25:19 10° 83° (E) 09:25:59 434.975-435.025
DOVE 4 05 Mar 09:25:03 09:29:10 43° 97° (E) 09:33:09 437.250
CANX-2 05 Mar 09:25:20 09:29:35 63° 101° (E) 09:33:49 2200.000
QB50P2 05 Mar 09:26:20 09:29:43 24° 61° (ENE) 09:33:09 145.880/145.840
Cubesat XI-IV 05 Mar 09:30:02 09:32:48 14° 312° (NW) 09:35:24 437.490
UNISAT 6 05 Mar 09:32:32 09:36:36 40° 67° (ENE) 09:40:39 437.425
DELFI C3 05 Mar 09:35:08 09:38:11 20° 90° (E) 09:41:18 145.870
CUTE-I 05 Mar 09:38:36 09:40:53 13° 314° (NW) 09:43:01 437.470
DUCHIFAT 1 05 Mar 09:38:45 09:42:24 29° 64° (ENE) 09:46:06 145.980
CUTE 1.7 + AOD 2 05 Mar 09:43:33 09:47:50 85° 103° (ESE) 09:52:07 437.475
FUNcube-1 05 Mar 09:44:17 09:46:55 17° 88° (E) 09:49:40 145.935
ZACube-1 05 Mar 09:46:24 09:49:12 18° 89° (E) 09:52:05 437.345
UKube-1 05 Mar 09:49:10 09:51:58 17° 88° (E) 09:54:52 .
TIGRISAT 05 Mar 09:56:03 10:00:21 64° 72° (ENE) 10:04:37 435.000
POPSAT HIP 1 05 Mar 10:00:45 10:04:49 44° 68° (ENE) 10:08:55 437.405
POLYITAN 1 05 Mar 10:01:34 10:05:39 45° 68° (ENE) 10:09:46 437.675
AO-7 05 Mar 10:05:00 10:07:24 11° 353° (N) 10:09:44 29.400- 29.500
O/OREOS (USA 219) 05 Mar 10:07:31 10:12:06 77° 301° (WNW) 10:16:45 437.305
UWE-3 05 Mar 10:10:52 10:14:40 34° 96° (E) 10:18:30 435.000/436.395/437.385
ANTELSAT 05 Mar 10:11:05 10:15:27 89° 78° (ENE) 10:19:47 437.575/2403.000
AAUSAT CUBESAT 2 05 Mar 10:17:39 10:21:51 71° 287° (WNW) 10:26:01 437.432
DANDE 05 Mar 10:21:52 10:24:07 21° 66° (ENE) 10:26:15 436.750
COMPASS 1 05 Mar 10:22:24 10:26:32 57° 289° (WNW) 10:30:41 437.405
NANOSAT C BR1 05 Mar 10:22:39 10:26:55 70° 72° (ENE) 10:31:11 145.865
SO-50 05 Mar 10:24:06 10:28:42 39° 238° (WSW) 10:33:15 436.795
Oscar 11 05 Mar 10:29:13 10:33:35 79° 102° (ESE) 10:37:56 145.826/435.025
50 SAT 05 Mar 10:33:49 10:36:43 20° 91° (E) 10:39:42 437.505
HO-68 05 Mar 10:34:32 10:41:38 63° 295° (WNW) 10:48:41 435.675
CUSAT 1 05 Mar 10:35:49 10:38:23 43° 73° (ENE) 10:40:55 437.405
RS-15 05 Mar 10:38:24 10:46:28 22° 259° (W) 10:54:09 29.354- 29.394
GOMX 1 05 Mar 10:40:48 10:44:42 30° 297° (WNW) 10:48:24 467.674
GONETS M04 05 Mar 10:43:20 10:51:00 35° 277° (W) 10:58:33
BRITE-PL 05 Mar 10:49:54 10:53:23 21° 302° (WNW) 10:56:36 437.365/2234.400
CINEMA 3 05 Mar 10:51:05 10:55:11 51° 290° (WNW) 10:59:12 145.822/145.860
BUGSAT 1 05 Mar 10:52:35 10:56:53 80° 256° (WSW) 11:01:11 437.445
CUBEBUG 2 05 Mar 10:53:50 10:58:01 80° 287° (WNW) 11:02:11 437.445
SEEDS 05 Mar 10:54:10 10:57:46 27° 296° (WNW) 11:01:18 437.485
QB50P1 05 Mar 10:56:19 11:00:33 57° 259° (W) 11:04:47 145.935-145.965
DX 1 05 Mar 10:58:05 11:02:30 72° 105° (ESE) 11:06:51 434.975-435.025
ISS 05 Mar 10:59:05 11:02:18 66° 170° (S) 11:05:30 145.825
QB50P2 05 Mar 11:01:12 11:05:23 51° 260° (W) 11:09:35 145.880/145.840
CANX-2 05 Mar 11:02:03 11:05:10 20° 300° (WNW) 11:08:13 2200.000
DOVE 4 05 Mar 11:03:11 11:06:48 26° 298° (WNW) 11:10:15 437.250
HUMSAT D 05 Mar 11:04:00 11:08:02 52° 100° (E) 11:12:05 437.325/437.525
CUBEBUG 1 05 Mar 11:08:20 11:11:46 22° 91° (E) 11:15:15 437.445
DELFI C3 05 Mar 11:09:43 11:13:43 51° 289° (WNW) 11:17:41 145.870
UNISAT 6 05 Mar 11:09:47 11:13:33 28° 266° (W) 11:17:15 437.425
AISAT 05 Mar 11:13:37 11:17:58 48° 99° (E) 11:22:16 437.250
DUCHIFAT 1 05 Mar 11:14:06 11:18:09 40° 262° (W) 11:22:12 145.980
FUNcube-1 05 Mar 11:19:38 11:23:47 64° 287° (WNW) 11:27:53 145.935
CUTE 1.7 + AOD 2 05 Mar 11:20:40 11:23:15 16° 303° (WNW) 11:25:43 437.475
VELOX 1 05 Mar 11:21:49 11:26:14 56° 101° (E) 11:30:36 145.980
ZACube-1 05 Mar 11:21:55 11:26:02 60° 289° (WNW) 11:30:07 437.345
UKube-1 05 Mar 11:24:18 11:28:39 69° 289° (WNW) 11:32:58 .
SPROUT 05 Mar 11:31:34 11:32:45 11° 83° (E) 11:34:08 437.525
TIGRISAT 05 Mar 11:34:34 11:37:36 18° 271° (W) 11:40:29 435.000
POPSAT HIP 1 05 Mar 11:37:19 11:40:55 25° 267° (W) 11:44:28 437.405
POLYITAN 1 05 Mar 11:38:15 11:41:49 24° 268° (W) 11:45:20 437.675
ESTCUBE 1 05 Mar 11:47:27 11:51:57 53° 100° (E) 11:56:25 437.505/2401.250
UWE-3 05 Mar 11:47:31 11:51:13 31° 295° (WNW) 11:54:52 435.000/436.395/437.385
O/OREOS (USA 219) 05 Mar 11:49:09 11:52:22 18° 323° (NW) 11:55:31 437.305
ANTELSAT 05 Mar 11:50:55 11:52:59 13° 275° (W) 11:54:51 437.575/2403.000
AO-7 05 Mar 11:52:47 11:56:40 14° 21° (NNE) 12:00:42 29.400- 29.500
AAUSAT CUBESAT 2 05 Mar 11:55:11 11:56:49 12° 306° (NW) 11:58:17 437.432
Gurwin Techsat 1B 05 Mar 11:59:34 12:01:53 13° 48° (NE) 12:04:22 435.225
NANOSAT C BR1 05 Mar 12:00:31 12:03:19 16° 272° (W) 12:05:58 145.865
Oscar 19 05 Mar 12:04:11 12:08:47 35° 63° (ENE) 12:13:25 437.125/150
DANDE 05 Mar 12:05:39 12:07:17 14° 269° (W) 12:08:47 436.750
Oscar 11 05 Mar 12:06:27 12:09:18 17° 302° (WNW) 12:12:03 145.826/435.025
50 SAT 05 Mar 12:08:10 12:12:01 49° 290° (WNW) 12:15:51 437.505
ITAMSAT 1 05 Mar 12:10:01 12:13:30 19° 53° (NE) 12:17:06 435.822/435.867
HO-68 05 Mar 12:23:14 12:28:11 20° 318° (NW) 12:32:57 435.675
BUGSAT 1 05 Mar 12:31:48 12:33:11 11° 276° (W) 12:34:21 437.445
CUBEBUG 2 05 Mar 12:32:11 12:34:07 13° 305° (NW) 12:35:54 437.445
DX 1 05 Mar 12:35:13 12:38:19 19° 303° (WNW) 12:41:18 434.975-435.025
ISS 05 Mar 12:35:23 12:38:35 66° 190° (S) 12:41:47 145.825
HUMSAT D 05 Mar 12:40:23 12:43:34 21° 299° (WNW) 12:46:40 437.325/437.525
CUBEBUG 1 05 Mar 12:44:09 12:48:29 53° 291° (WNW) 12:52:46 437.445
AISAT 05 Mar 12:50:38 12:54:23 26° 299° (WNW) 12:58:02 437.250
ITUPSAT 1 05 Mar 12:54:39 12:56:48 13° 84° (E) 12:59:10 437.325
FUNcube-1 05 Mar 12:58:20 12:59:24 11° 307° (NW) 13:00:18 145.935
VELOX 1 05 Mar 12:58:57 13:02:31 23° 300° (WNW) 13:06:00 145.980
TISAT 1 05 Mar 12:59:26 13:03:40 63° 101° (E) 13:07:51 437.305
ZACube-1 05 Mar 13:01:04 13:01:39 10° 308° (NW) 13:02:03 437.345
UKube-1 05 Mar 13:02:10 13:04:06 13° 308° (NW) 13:05:53 .
HORYU 2 05 Mar 13:04:00 13:04:37 10° 50° (NE) 13:05:24 437.375
SPROUT 05 Mar 13:05:20 13:09:41 80° 104° (ESE) 13:13:59 437.525
JAS-2 05 Mar 13:15:07 13:16:41 11° 35° (NE) 13:18:31 435.910
ESTCUBE 1 05 Mar 13:24:49 13:28:35 25° 299° (WNW) 13:32:16 437.505/2401.250
Gurwin Techsat 1B 05 Mar 13:35:42 13:40:52 56° 68° (ENE) 13:46:07 435.225
AO-7 05 Mar 13:39:59 13:47:03 33° 47° (NE) 13:54:13 29.400- 29.500
Oscar 19 05 Mar 13:43:10 13:48:05 44° 262° (W) 13:52:59 437.125/150
ITAMSAT 1 05 Mar 13:47:06 13:52:22 85° 70° (ENE) 13:57:39 435.822/435.867
SWISSCUBE 05 Mar 13:53:32 13:58:09 43° 98° (E) 14:02:45 437.505
YUBILEINY 05 Mar 13:56:57 13:58:44 11° 65° (ENE) 14:01:08 435.215
BEESAT 05 Mar 14:01:37 14:06:17 47° 99° (E) 14:10:55 436.000
ISS 05 Mar 14:11:54 14:14:40 26° 209° (SSW) 14:17:24 145.825
CUBEBUG 1 05 Mar 14:23:30 14:23:58 10° 310° (NW) 14:24:16 437.445
ITUPSAT 1 05 Mar 14:30:44 14:35:36 80° 103° (ESE) 14:40:27 437.325
TISAT 1 05 Mar 14:36:01 14:39:07 20° 301° (WNW) 14:42:06 437.305
HORYU 2 05 Mar 14:36:06 14:40:25 54° 69° (ENE) 14:44:46 437.375
SPROUT 05 Mar 14:42:30 14:45:17 17° 303° (WNW) 14:47:57 437.525
JAS-2 05 Mar 14:54:37 14:59:54 37° 59° (ENE) 15:05:52 435.910
STARS 05 Mar 15:04:20 15:08:09 29° 94° (E) 15:11:59 437.465
KKS-1 05 Mar 15:04:22 15:08:35 41° 98° (E) 15:12:48 437.445
Gurwin Techsat 1B 05 Mar 15:16:39 15:21:13 28° 268° (W) 15:25:45 435.225
ITAMSAT 1 05 Mar 15:29:03 15:32:38 18° 274° (W) 15:36:02 435.822/435.867
AO-7 05 Mar 15:30:47 15:39:10 86° 248° (WSW) 15:47:34 29.400- 29.500
SWISSCUBE 05 Mar 15:31:38 15:35:55 32° 298° (WNW) 15:40:10 437.505
BEESAT 05 Mar 15:39:47 15:43:59 30° 298° (WNW) 15:48:07 436.000
YUBILEINY 05 Mar 15:45:13 15:53:23 47° 88° (E) 16:01:42 435.215
Cubesat XI-IV 05 Mar 15:59:07 16:02:27 17° 51° (NE) 16:05:56 437.490
CUTE-I 05 Mar 16:06:52 16:10:28 19° 53° (NE) 16:14:13 437.470
ITUPSAT 1 05 Mar 16:09:31 16:13:01 20° 304° (NW) 16:16:23 437.325
HORYU 2 05 Mar 16:13:55 16:17:25 22° 269° (W) 16:20:52 437.375
BEESAT 2 05 Mar 16:27:14 16:29:24 14° 113° (ESE) 16:31:42 435.950
AUBIESAT-1 05 Mar 16:32:59 16:35:58 19° 96° (E) 16:39:12 437.475
M-CUBED/EXP-1 PRIME 05 Mar 16:33:24 16:36:34 20° 98° (E) 16:40:00 437.505
MOZHAYETS 4 05 Mar 16:36:36 16:40:23 25° 91° (E) 16:44:14
AIST 1 05 Mar 16:38:13 16:40:35 14° 58° (ENE) 16:43:05
JAS-2 05 Mar 16:39:12 16:44:49 53° 263° (W) 16:51:12 435.910
STARS 05 Mar 16:40:38 16:44:46 40° 294° (WNW) 16:48:52 437.465
KKS-1 05 Mar 16:41:15 16:45:08 30° 297° (WNW) 16:48:58 437.445
O/OREOS (USA 219) 05 Mar 16:53:38 16:57:03 20° 39° (NE) 17:00:30 437.305
AO-7 05 Mar 17:26:43 17:33:18 24° 273° (W) 17:39:38 29.400- 29.500
BEESAT 3 05 Mar 17:34:02 17:38:04 56° 127° (SE) 17:42:10 437.485
Cubesat XI-IV 05 Mar 17:36:26 17:41:47 75° 72° (ENE) 17:47:13 437.490
HO-68 05 Mar 17:38:06 17:42:09 17° 38° (NE) 17:46:23 435.675
YUBILEINY 05 Mar 17:41:41 17:50:14 53° 292° (WNW) 17:58:50 435.215
CUTE-I 05 Mar 17:44:30 17:49:53 84° 73° (ENE) 17:55:19 437.470
BEESAT 2 05 Mar 18:02:50 18:06:59 84° 132° (SE) 18:11:12 435.950
AUBIESAT-1 05 Mar 18:07:01 18:11:12 69° 294° (WNW) 18:15:41 437.475
M-CUBED/EXP-1 PRIME 05 Mar 18:07:39 18:11:48 62° 295° (WNW) 18:16:16 437.505
PRISM 05 Mar 18:12:54 18:15:47 18° 89° (E) 18:18:45 437.425
MOZHAYETS 4 05 Mar 18:13:24 18:17:56 52° 291° (WNW) 18:22:26
AIST 1 05 Mar 18:14:34 18:19:02 90° 120° (ESE) 18:23:26
AIST 2 05 Mar 18:17:01 18:21:10 53° 126° (SE) 18:25:24 435.215
STRAND 1 05 Mar 18:24:33 18:27:53 18° 86° (E) 18:31:22 437.568
O/OREOS (USA 219) 05 Mar 18:32:31 18:37:10 90° 51° (NE) 18:41:45 437.305
GOMX 1 05 Mar 18:40:08 18:43:15 17° 56° (NE) 18:46:24 467.674
CUBESAT XI-V 05 Mar 18:43:42 18:48:06 37° 95° (E) 18:52:29 437.345
SEEDS 05 Mar 18:43:55 18:44:56 11° 53° (NE) 18:46:07 437.485
BRITE-PL 05 Mar 18:49:15 18:53:42 27° 61° (ENE) 18:58:02 437.365/2234.400
CANX-2 05 Mar 18:50:29 18:52:52 15° 57° (ENE) 18:55:22 2200.000
VERMONT LUNAR 05 Mar 18:57:22 18:58:38 12° 179° (S) 18:59:52 437.305
DOVE 4 05 Mar 19:00:34 19:03:37 17° 57° (ENE) 19:06:41 437.250
CUTE 1.7 + AOD 2 05 Mar 19:07:54 19:10:53 19° 60° (ENE) 19:13:57 437.475
BEESAT 3 05 Mar 19:12:37 19:16:24 32° 328° (NNW) 19:20:11 437.485
Cubesat XI-IV 05 Mar 19:18:27 19:22:33 21° 272° (W) 19:26:32 437.490
HO-68 05 Mar 19:21:37 19:28:24 50° 61° (ENE) 19:35:17 435.675
PHONESAT 2.4 05 Mar 19:22:56 19:24:26 12° 176° (S) 19:25:56 2401.200-2431.200
PCSat 05 Mar 19:24:02 19:26:34 14° 105° (ESE) 19:29:22 145.827
CUTE-I 05 Mar 19:26:57 19:30:44 19° 273° (W) 19:34:23 437.470
AAUSAT CUBESAT 2 05 Mar 19:39:49 19:43:07 24° 62° (ENE) 19:46:29 437.432
UWE-3 05 Mar 19:41:18 19:42:09 11° 53° (NE) 19:43:08 435.000/436.395/437.385
BEESAT 2 05 Mar 19:42:05 19:45:39 26° 334° (NNW) 19:49:12 435.950
AUBIESAT-1 05 Mar 19:43:22 19:45:30 14° 311° (NW) 19:47:35 437.475
YUBILEINY 05 Mar 19:44:16 19:49:46 17° 320° (NW) 19:55:00 435.215
M-CUBED/EXP-1 PRIME 05 Mar 19:44:18 19:46:07 12° 312° (NW) 19:47:52 437.505
COMPASS 1 05 Mar 19:44:33 19:48:06 29° 64° (ENE) 19:51:44 437.405
PRISM 05 Mar 19:47:31 19:51:44 63° 289° (WNW) 19:55:54 437.425
MOZHAYETS 4 05 Mar 19:53:21 19:54:15 10° 310° (NW) 19:54:57
AIST 1 05 Mar 19:54:04 19:56:03 13° 278° (W) 19:57:53
Oscar 11 05 Mar 19:55:11 19:58:15 20° 59° (ENE) 20:01:24 145.826/435.025
AIST 2 05 Mar 19:56:00 19:59:59 35° 327° (NNW) 20:03:59 435.215
STRAND 1 05 Mar 20:02:39 20:07:51 84° 290° (WNW) 20:13:00 437.568
GONETS M04 05 Mar 20:02:51 20:07:22 16° 70° (ENE) 20:12:19
O/OREOS (USA 219) 05 Mar 20:13:25 20:15:58 14° 260° (W) 20:18:21 437.305
GOMX 1 05 Mar 20:15:33 20:20:48 81° 76° (ENE) 20:25:46 467.674
SEEDS 05 Mar 20:15:53 20:20:01 64° 72° (ENE) 20:24:11 437.485
CUBESAT XI-V 05 Mar 20:21:14 20:25:33 36° 295° (WNW) 20:29:49 437.345
CINEMA 3 05 Mar 20:21:33 20:25:52 41° 67° (ENE) 20:30:03 145.822/145.860
CUBEBUG 2 05 Mar 20:22:10 20:25:47 26° 63° (ENE) 20:29:21 437.445
CANX-2 05 Mar 20:24:03 20:28:16 86° 253° (WSW) 20:32:32 2200.000
DX 1 05 Mar 20:24:36 20:27:54 21° 59° (ENE) 20:31:16 434.975-435.025
BRITE-PL 05 Mar 20:26:25 20:31:56 64° 259° (WSW) 20:37:08 437.365/2234.400
HUMSAT D 05 Mar 20:28:43 20:30:36 13° 56° (NE) 20:32:38 437.325/437.525
DELFI C3 05 Mar 20:28:49 20:32:16 28° 65° (ENE) 20:35:48 145.870
DOVE 4 05 Mar 20:35:51 20:40:54 88° 68° (ENE) 20:45:39 437.250
CUTE 1.7 + AOD 2 05 Mar 20:42:16 20:46:27 63° 259° (WSW) 20:50:39 437.475
AISAT 05 Mar 20:42:58 20:45:40 16° 55° (NE) 20:48:30 437.250
FUNcube-1 05 Mar 20:45:38 20:49:19 29° 64° (ENE) 20:52:59 145.935
ZACube-1 05 Mar 20:47:59 20:51:44 30° 65° (ENE) 20:55:28 437.345
UKube-1 05 Mar 20:49:28 20:53:18 31° 64° (ENE) 20:57:12 .
VELOX 1 05 Mar 20:50:38 20:53:36 18° 57° (ENE) 20:56:41 145.980
BEESAT 3 05 Mar 20:52:56 20:55:38 16° 352° (N) 20:58:18 437.485
PHONESAT 2.4 05 Mar 21:01:27 21:01:55 10° 193° (SSW) 21:02:20 2401.200-2431.200
PCSat 05 Mar 21:03:45 21:09:08 69° 124° (SE) 21:14:34 145.827
HO-68 05 Mar 21:09:27 21:16:17 46° 262° (W) 21:23:08 435.675
UWE-3 05 Mar 21:13:39 21:17:57 60° 72° (ENE) 21:22:10 435.000/436.395/437.385
AAUSAT CUBESAT 2 05 Mar 21:14:32 21:18:33 47° 261° (W) 21:22:36 437.432
ESTCUBE 1 05 Mar 21:18:07 21:21:03 17° 56° (ENE) 21:24:05 437.505/2401.250
COMPASS 1 05 Mar 21:19:51 21:23:45 37° 264° (W) 21:27:39 437.405
BEESAT 2 05 Mar 21:22:30 21:25:06 16° 357° (N) 21:27:42 435.950
PRISM 05 Mar 21:25:09 21:26:28 11° 308° (NW) 21:27:38 437.425
50 SAT 05 Mar 21:26:05 21:29:28 28° 65° (ENE) 21:32:53 437.505
Oscar 11 05 Mar 21:29:47 21:34:04 65° 259° (WSW) 21:38:22 145.826/435.025
AIST 2 05 Mar 21:36:48 21:39:44 17° 351° (N) 21:42:39 435.215
STRAND 1 05 Mar 21:42:55 21:46:24 18° 307° (NW) 21:49:45 437.568
SEEDS 05 Mar 21:53:29 21:56:19 17° 272° (W) 21:59:03 437.485
GONETS M04 05 Mar 21:54:04 22:02:33 63° 93° (E) 22:11:07
GOMX 1 05 Mar 21:55:55 21:59:32 18° 273° (W) 22:02:52 467.674
CUBEBUG 2 05 Mar 21:58:03 22:02:19 46° 261° (W) 22:06:29 437.445
ANTELSAT 05 Mar 21:58:54 22:00:31 12° 85° (E) 22:02:22 437.575/2403.000
CINEMA 3 05 Mar 21:59:05 22:03:13 30° 266° (W) 22:07:09 145.822/145.860
DX 1 05 Mar 21:59:27 22:03:49 62° 258° (WSW) 22:08:11 434.975-435.025
HUMSAT D 05 Mar 22:01:37 22:05:48 82° 75° (ENE) 22:09:58 437.325/437.525
CANX-2 05 Mar 22:03:22 22:04:59 12° 276° (W) 22:06:25 2200.000
DELFI C3 05 Mar 22:03:39 22:07:25 36° 264° (W) 22:11:11 145.870
BRITE-PL 05 Mar 22:09:26 22:11:29 12° 279° (W) 22:13:14 437.365/2234.400
CUBEBUG 1 05 Mar 22:10:00 22:14:07 39° 66° (ENE) 22:18:18 437.445
DOVE 4 05 Mar 22:16:18 22:19:19 16° 274° (W) 22:22:05 437.250
AISAT 05 Mar 22:17:12 22:21:43 90° 76° (ENE) 22:26:15 437.250
FUNcube-1 05 Mar 22:21:32 22:25:36 39° 263° (W) 22:29:35 145.935
TISAT 1 05 Mar 22:23:40 22:26:21 17° 57° (ENE) 22:29:06 437.305
ZACube-1 05 Mar 22:24:03 22:28:04 36° 263° (W) 22:32:01 437.345
VELOX 1 05 Mar 22:25:11 22:29:42 80° 256° (WSW) 22:34:13 145.980
UKube-1 05 Mar 22:25:20 22:29:25 37° 263° (W) 22:33:30 .
SPROUT 05 Mar 22:30:40 22:33:49 20° 60° (ENE) 22:37:03 437.525
BUGSAT 1 05 Mar 22:31:52 22:32:32 10° 83° (E) 22:33:24 437.445
BEESAT 3 05 Mar 22:32:12 22:35:08 18° 15° (NNE) 22:38:05 437.485
QB50P1 05 Mar 22:36:42 22:39:17 16° 87° (E) 22:41:59 145.935-145.965
QB50P2 05 Mar 22:41:30 22:44:23 18° 89° (E) 22:47:21 145.880/145.840
PCSat 05 Mar 22:48:01 22:52:59 35° 326° (NNW) 22:57:58 145.827
UWE-3 05 Mar 22:51:46 22:54:55 19° 271° (W) 22:57:56 435.000/436.395/437.385
ESTCUBE 1 05 Mar 22:52:51 22:57:24 84° 255° (WSW) 23:02:00 437.505/2401.250
DUCHIFAT 1 05 Mar 22:53:26 22:56:43 22° 91° (E) 23:00:03 145.980
UNISAT 6 05 Mar 22:54:58 22:59:00 38° 97° (E) 23:03:04 437.425
RS-15 05 Mar 22:55:37 23:05:30 44° 113° (ESE) 23:15:42 29.354- 29.394
50 SAT 05 Mar 23:00:43 23:04:24 35° 263° (W) 23:08:04 437.505
BEESAT 2 05 Mar 23:01:25 23:04:39 21° 20° (NNE) 23:07:54 435.950
POPSAT HIP 1 05 Mar 23:15:58 23:19:53 35° 96° (E) 23:23:47 437.405
AIST 2 05 Mar 23:16:40 23:19:47 19° 14° (NNE) 23:22:54 435.215
POLYITAN 1 05 Mar 23:17:07 23:21:03 37° 97° (E) 23:24:59 437.675
TIGRISAT 05 Mar 23:18:21 23:22:36 61° 102° (ESE) 23:26:54 435.000
SWISSCUBE 05 Mar 23:30:17 23:33:26 18° 55° (NE) 23:36:43 437.505
ANTELSAT 05 Mar 23:33:46 23:38:05 87° 103° (ESE) 23:42:27 437.575/2403.000
NANOSAT C BR1 05 Mar 23:37:43 23:41:55 57° 101° (E) 23:46:04 145.865
BEESAT 05 Mar 23:38:06 23:41:24 19° 56° (NE) 23:44:50 436.000
DANDE 05 Mar 23:39:11 23:44:20 33° 97° (E) 23:48:23 436.750
HUMSAT D 05 Mar 23:40:05 23:42:13 13° 274° (W) 23:44:11 437.325/437.525
CUBEBUG 1 05 Mar 23:46:36 23:50:36 31° 266° (W) 23:54:34 437.445
CUSAT 1 05 Mar 23:49:47 23:54:53 45° 99° (E) 23:58:46 437.405
GONETS M04 05 Mar 23:51:54 23:59:59 40° 298° (WNW) 00:08:02
YUBILEINY 05 Mar 23:51:58 23:54:28 11° 28° (NNE) 23:57:19 435.215
AISAT 05 Mar 23:56:41 23:59:05 14° 275° (W) 00:01:17 437.250
TISAT 1 05 Mar 23:57:22 00:01:40 80° 256° (WSW) 00:05:58 437.305
BUGSAT 1 06 Mar 00:04:40 00:08:53 79° 105° (ESE) 00:13:00 437.445
SPROUT 06 Mar 00:05:14 00:09:33 63° 258° (WSW) 00:13:53 437.525
VELOX 1 06 Mar 00:05:21 00:07:08 12° 276° (W) 00:08:42 145.980
ITUPSAT 1 06 Mar 00:06:32 00:10:39 30° 62° (ENE) 00:14:52 437.325
BEESAT 3 06 Mar 00:10:08 00:14:10 45° 38° (NE) 00:18:10 437.485
QB50P1 06 Mar 00:11:29 00:15:43 70° 288° (WNW) 00:19:54 145.935-145.965
QB50P2 06 Mar 00:16:32 00:20:45 62° 289° (WNW) 00:24:55 145.880/145.840
DUCHIFAT 1 06 Mar 00:28:45 00:32:52 49° 291° (WNW) 00:36:55 145.980
UNISAT 6 06 Mar 00:31:57 00:35:44 30° 296° (WNW) 00:39:30 437.425
ESTCUBE 1 06 Mar 00:32:59 00:35:06 13° 276° (W) 00:37:03 437.505/2401.250
PCSat 06 Mar 00:34:12 00:38:00 19° 352° (N) 00:41:46 145.827
KKS-1 06 Mar 00:34:21 00:36:38 14° 54° (NE) 00:39:04 437.445
STARS 06 Mar 00:35:10 00:35:34 10° 50° (NE) 00:36:09 437.465
BEESAT 2 06 Mar 00:39:23 00:43:35 64° 44° (NE) 00:47:42 435.950
SO-50 06 Mar 00:45:14 00:48:20 18° 114° (ESE) 00:51:37 436.795
POPSAT HIP 1 06 Mar 00:51:58 00:55:45 31° 295° (WNW) 00:59:27 437.405
POLYITAN 1 06 Mar 00:53:12 00:56:56 30° 296° (WNW) 01:00:37 437.675
AIST 2 06 Mar 00:55:12 00:59:22 45° 37° (NE) 01:03:29 435.215
TIGRISAT 06 Mar 00:55:51 00:59:03 20° 300° (WNW) 01:02:10 435.000
SWISSCUBE 06 Mar 01:05:56 01:10:45 88° 260° (W) 01:15:37 437.505
RS-15 06 Mar 01:06:20 01:17:17 76° 320° (NW) 01:28:34 29.354- 29.394
ANTELSAT 06 Mar 01:11:48 01:14:23 16° 304° (WNW) 01:16:53 437.575/2403.000
BEESAT 06 Mar 01:13:57 01:18:45 81° 254° (WSW) 01:23:35 436.000
NANOSAT C BR1 06 Mar 01:14:14 01:17:28 21° 300° (WNW) 01:20:37 145.865
DANDE 06 Mar 01:22:19 01:27:40 39° 289° (WNW) 01:31:43 436.750
CUSAT 1 06 Mar 01:33:39 01:37:48 24° 292° (WNW) 01:41:06 437.405
TISAT 1 06 Mar 01:36:55 01:38:17 11° 276° (W) 01:39:27 437.305
BUGSAT 1 06 Mar 01:41:15 01:43:52 16° 303° (WNW) 01:46:22 437.445
ITUPSAT 1 06 Mar 01:43:47 01:48:25 47° 261° (W) 01:53:06 437.325
Gurwin Techsat 1B 06 Mar 01:47:14 01:49:51 14° 83° (E) 01:52:43 435.225
Oscar 19 06 Mar 01:48:18 01:53:10 42° 97° (E) 01:58:04 437.125/150
BEESAT 3 06 Mar 01:48:25 01:52:11 34° 238° (WSW) 01:55:54 437.485
QB50P1 06 Mar 01:49:12 01:50:54 12° 307° (NW) 01:52:26 145.935-145.965
QB50P2 06 Mar 01:54:43 01:55:53 11° 308° (NW) 01:56:54 145.880/145.840
